Flag for Puerto Rico Weather past 2 weeks in San Juan, Puerto Rico

Now
87 °F

Scattered clouds.


Feels Like: 95 °F
Forecast: 76 / 88 °F
Wind: 12 mph from Northeast

Location: Luis Munoz Marin

Current Time: Apr 25, 2015 at 1:05:08 PM

Latest Report: Apr 25, 2015 at 11:56 AM


Visibility: 10 mi

Pressure: 29.98 "Hg

Humidity: 63%

Dew point: 73 °F

Location of San JuanLocation

Historic Weather in San Juan — Graph

°F

San Juan temperature yesterday

Maximum temperature yesterday: 91 °F (at 2:56 PM)
Minimum temperature yesterday: 76 °F (at 1:56 AM)
Average temperature yesterday: 82 °F

Past Weeks' High & Low Weather Summary

 TemperatureHumidityPressure
High91 °F (Apr 24, 2:56 PM)94% (Apr 10, 5:56 PM)30.14 "Hg (Apr 10, 5:56 PM)
Low73 °F (Apr 11, 3:56 AM)47% (Apr 24, 2:56 PM)29.89 "Hg (Apr 24, 3:56 PM)
Average80 °F76%30.03 "Hg
* Reported Apr 10 11:56 AM — Apr 25 11:56 AM, San Juan, Weather by CustomWeather, © 2015

Note: Actual official high and low records may vary slightly from our data, if they occured in-between our weather recording intervals... More about our weather records

Advertising

San Juan weather history for previous 24 hours

 ConditionsComfort  
Time TempWeatherWind HumidityBarometerVisibility
11:56 AM
Sat, Apr 25
87 °FScattered clouds.12 mph63%29.98 "Hg10 mi
10:56 AM87 °FScattered clouds.10 mph59%29.98 "Hg10 mi
9:56 AM88 °FScattered clouds.5 mph55%29.99 "Hg10 mi
8:56 AM85 °FPassing clouds.7 mph61%29.99 "Hg10 mi
7:56 AM82 °FPassing clouds.7 mph74%29.99 "Hg10 mi
6:56 AM79 °FPassing clouds.5 mph82%29.98 "Hg10 mi
5:56 AM78 °FPassing clouds.3 mph84%29.96 "Hg10 mi
4:56 AM78 °FPassing clouds.3 mph84%29.96 "Hg10 mi
3:56 AM78 °FPassing clouds.3 mph82%29.93 "Hg10 mi
2:56 AM79 °FPassing clouds.No wind79%29.94 "Hg10 mi
1:56 AM80 °FPartly cloudy.3 mph76%29.94 "Hg10 mi
12:56 AM80 °FPartly cloudy.3 mph79%29.96 "Hg10 mi
11:56 PM
Fri, Apr 24
80 °FPartly cloudy.3 mph79%29.97 "Hg10 mi
10:56 PM81 °FPartly cloudy.6 mph79%29.98 "Hg10 mi
9:56 PM80 °FPartly cloudy.5 mph85%29.98 "Hg10 mi
8:56 PM80 °FPartly cloudy.6 mph76%29.96 "Hg10 mi
7:56 PM82 °FMostly cloudy.7 mph84%29.96 "Hg10 mi
6:56 PM83 °FBroken clouds.13 mph79%29.94 "Hg10 mi
5:56 PM84 °FBroken clouds.8 mph74%29.91 "Hg10 mi
4:56 PM88 °FBroken clouds.5 mph55%29.90 "Hg10 mi
3:56 PM90 °FBroken clouds.8 mph48%29.89 "Hg10 mi
2:56 PM91 °FScattered clouds.8 mph47%29.90 "Hg10 mi
1:56 PM87 °FPartly sunny.12 mph65%29.92 "Hg10 mi
Weather by CustomWeather, © 2015

See weather overviewHow to use our weather pages